[Date Prev][Date Next][Thread Prev][Thread Next] - [Date Index][Thread Index][Author Index]
2 Line ISS Keps 1-30
- Subject: [sarex] 2 Line ISS Keps 1-30
- From: "Dave Larsen PhD" <doc@xxxxxxxxxxx>
- Date: Sat, 31 Jan 2004 01:35:42 -0800
ISS
1 25544U 98067A 04031.18041263 .00016475 00000-0 15870-3 0 1059
2 25544 51.6299 308.2316 0007787 109.5734 51.6428 15.66651306296669
----
Via the sarex mailing list at AMSAT.ORG courtesy of AMSAT-NA.
To unsubscribe, send "unsubscribe sarex" to Majordomo@amsat.org
AMSAT Home